EW0531 Weather Reports


Display with metric or nautical units.
time (UTC)temp
F
wind
direction
speed
MPH
gust
MPH
rain 1hr
in
rain 24hr
in
rain mn
in
humidity
%
barometer
mb
20260905052037 54 0 0.0 0.0 0.00 0.03 0.00 88 1023.3
20260905051600 54 0 0.0 0.0 0.00 0.03 0.00 88 1023.3
20260905051037 54 0 0.0 0.0 0.00 0.03 0.00 87 1023.3
20260905050540 54 0 0.0 0.0 0.00 0.03 0.00 87 1023.1
20260905050057 54 0 0.0 0.0 0.00 0.03 0.00 88 1023.1
20260905045536 54 0 0.0 0.0 0.00 0.03 0.00 87 1023.1
20260905045039 54 0 0.0 0.0 0.00 0.03 0.00 87 1023.1
20260905044557 54 0 0.0 0.0 0.00 0.03 0.00 87 1023.1
20260905044039 54 0 0.0 0.0 0.00 0.03 0.00 87 1023.0
20260905043536 53 0 0.0 0.0 0.00 0.03 0.00 88 1023.1
20260905043106 53 0 0.0 0.0 0.00 0.03 0.00 87 1023.1
20260905042536 53 0 0.0 0.0 0.00 0.03 0.00 87 1023.0
20260905042037 53 0 0.0 0.0 0.00 0.03 0.00 87 1022.9
20260905041558 53 0 0.0 0.0 0.00 0.03 0.00 87 1022.8
20260905041036 53 0 0.0 0.0 0.00 0.03 0.00 87 1022.8
20260905040536 53 0 0.0 0.0 0.00 0.03 0.00 87 1022.8
20260905040100 53 0 0.0 0.0 0.00 0.03 0.00 86 1022.6
20260905035536 53 0 0.0 0.0 0.00 0.03 0.00 86 1022.7
20260905035036 53 0 0.0 0.0 0.00 0.03 0.00 86 1022.6
20260905034603 53 0 0.0 0.0 0.00 0.03 0.00 86 1022.6
20260905034039 54 0 0.0 0.0 0.00 0.03 0.00 86 1022.4
20260905033537 54 0 0.0 0.0 0.00 0.03 0.00 86 1022.5
20260905033104 54 0 0.0 0.0 0.00 0.03 0.00 86 1022.5
20260905032537 54 0 0.0 0.0 0.00 0.03 0.00 85 1022.5
20260905032037 54 0 0.0 0.0 0.00 0.03 0.00 85 1022.5
20260905031604 54 0 0.0 2.0 0.00 0.03 0.00 85 1022.4
20260905031036 54 0 0.0 3.0 0.00 0.03 0.00 85 1022.5
20260905030536 54 0 0.0 3.0 0.00 0.03 0.00 85 1022.4
20260905030107 54 0 0.0 0.0 0.00 0.03 0.00 85 1022.3
20260905025536 54 0 0.0 0.0 0.00 0.04 0.00 85 1022.3
20260905025033 54 0 0.0 0.0 0.00 0.04 0.00 84 1022.3
20260905024632 54 0 0.0 1.0 0.00 0.04 0.00 84 1022.2
20260905024040 55 0 0.0 1.0 0.00 0.04 0.00 84 1022.1
20260905023541 55 0 0.0 1.0 0.00 0.04 0.00 84 1022.1
20260905023100 55 0 0.0 4.0 0.00 0.04 0.00 85 1022.0
20260905022536 55 0 0.0 4.0 0.00 0.04 0.00 85 1021.8
20260905022038 55 263 0.0 4.0 0.00 0.04 0.00 85 1021.8
20260905021556 55 0 1.0 4.0 0.00 0.04 0.00 85 1021.8
20260905021036 55 277 0.0 6.0 0.00 0.04 0.00 85 1021.8
20260905020536 54 262 1.0 6.0 0.00 0.04 0.00 86 1021.7
20260905015538 54 232 0.0 3.0 0.00 0.04 0.00 86 1021.7
20260905015037 53 0 0.0 3.0 0.00 0.04 0.00 86 1021.6
20260905014559 53 232 0.0 3.0 0.00 0.04 0.00 86 1021.6
20260905014037 53 0 0.0 2.0 0.00 0.04 0.00 86 1021.6
20260905013537 53 0 0.0 0.0 0.00 0.04 0.00 86 1021.7
20260905013055 53 0 0.0 0.0 0.00 0.04 0.00 85 1021.7
20260905012536 53 0 0.0 0.0 0.00 0.04 0.00 85 1021.7
20260905012036 53 0 0.0 0.0 0.00 0.04 0.00 85 1021.6
20260905011603 53 0 0.0 0.0 0.00 0.04 0.00 85 1021.6
20260905011039 53 0 0.0 0.0 0.00 0.04 0.00 85 1021.5
20260905010537 53 0 0.0 0.0 0.00 0.04 0.00 84 1021.5
20260905010101 53 0 0.0 0.0 0.00 0.04 0.00 84 1021.6
20260905005536 53 0 0.0 0.0 0.00 0.04 0.00 84 1021.6
20260905005037 53 0 0.0 0.0 0.00 0.04 0.00 84 1021.7
20260905004602 54 0 0.0 0.0 0.00 0.04 0.00 83 1021.6
20260905004036 54 0 0.0 0.0 0.00 0.04 0.00 83 1021.7
20260905003537 54 0 0.0 0.0 0.00 0.04 0.00 83 1021.6
20260905003105 54 0 0.0 0.0 0.00 0.04 0.00 83 1021.6
20260905002536 54 0 0.0 0.0 0.00 0.04 0.00 83 1021.6
20260905002036 55 0 0.0 0.0 0.00 0.04 0.00 83 1021.6
20260905001605 55 0 0.0 0.0 0.00 0.04 0.00 82 1021.6
20260905001042 55 0 0.0 0.0 0.00 0.04 0.00 81 1021.6
20260905000537 55 0 0.0 0.0 0.00 0.04 0.00 81 1021.6
20260905000059 55 0 0.0 0.0 0.00 0.04 0.00 81 1021.5
20260904235536 56 0 0.0 3.0 0.00 0.05 0.00 81 1021.5
20260904235036 56 0 0.0 3.0 0.00 0.05 0.00 81 1021.4
20260904234556 56 0 0.0 3.0 0.00 0.05 0.00 81 1021.4
20260904234036 56 0 0.0 3.0 0.00 0.05 0.00 81 1021.3
20260904233536 56 0 0.0 3.0 0.00 0.05 0.00 81 1021.3
20260904233102 56 232 0.0 3.0 0.00 0.05 0.00 81 1021.3
20260904232536 56 0 0.0 3.0 0.00 0.05 0.00 81 1021.3
20260904232041 56 0 0.0 4.0 0.00 0.05 0.00 81 1021.3
20260904231605 56 240 0.0 4.0 0.00 0.05 0.00 81 1021.2
20260904231039 56 0 0.0 3.0 0.00 0.05 0.00 81 1021.1
20260904230537 57 0 1.0 3.0 0.00 0.05 0.00 80 1021.1
20260904230101 57 240 1.0 3.0 0.00 0.05 0.00 80 1021.1
20260904225537 57 0 0.0 3.0 0.00 0.05 0.05 80 1021.2
20260904225037 57 0 0.0 4.0 0.00 0.05 0.05 80 1021.1
20260904224559 57 0 0.0 4.0 0.00 0.05 0.05 80 1021.0
20260904224036 57 267 2.0 4.0 0.00 0.05 0.05 80 1021.0
20260904223537 57 225 1.0 4.0 0.00 0.05 0.05 80 1020.9
20260904223054 57 254 0.0 3.0 0.00 0.05 0.05 79 1020.8
20260904222536 57 254 1.0 3.0 0.00 0.05 0.05 79 1020.7
20260904222037 57 0 1.0 3.0 0.00 0.05 0.05 79 1020.8
20260904221607 58 220 0.0 2.0 0.00 0.05 0.05 78 1020.8
20260904221037 58 0 0.0 3.0 0.00 0.05 0.05 78 1020.7
20260904220537 58 0 0.0 3.0 0.00 0.05 0.05 78 1020.7
20260904220104 58 220 1.0 6.0 0.00 0.05 0.05 78 1020.7
20260904215537 58 220 1.0 6.0 0.00 0.05 0.05 78 1020.7
20260904215037 58 242 2.0 6.0 0.00 0.05 0.05 78 1020.7
20260904214602 58 232 2.0 6.0 0.00 0.05 0.05 77 1020.7
20260904214036 58 254 2.0 6.0 0.00 0.05 0.05 77 1020.6
20260904213536 59 248 2.0 4.0 0.00 0.05 0.05 77 1020.6
20260904213058 59 248 2.0 4.0 0.00 0.05 0.05 77 1020.7
20260904212535 59 246 2.0 4.0 0.00 0.05 0.05 76 1020.6
20260904212036 59 273 2.0 4.0 0.00 0.05 0.05 76 1020.6
20260904211604 59 258 1.0 4.0 0.00 0.05 0.05 76 1020.5
20260904211036 59 0 2.0 4.0 0.00 0.05 0.05 76 1020.4
20260904210537 60 258 1.0 3.0 0.00 0.05 0.05 76 1020.3
20260904210107 60 238 1.0 4.0 0.00 0.05 0.05 76 1020.4
20260904205537 60 229 2.0 4.0 0.00 0.05 0.05 76 1020.3
20260904205036 60 213 2.0 4.0 0.00 0.05 0.05 75 1020.3
20260904204602 60 227 2.0 4.0 0.00 0.05 0.05 75 1020.3
20260904204036 60 234 2.0 4.0 0.00 0.05 0.05 75 1020.3
20260904203537 60 221 1.0 5.0 0.00 0.05 0.05 74 1020.1
20260904203100 60 240 2.0 7.0 0.00 0.05 0.05 74 1020.2
20260904202537 61 224 2.0 7.0 0.00 0.05 0.05 74 1020.1
20260904202037 61 246 2.0 6.0 0.00 0.05 0.05 74 1020.0
20260904201601 61 248 2.0 4.0 0.00 0.05 0.05 73 1020.0
20260904201036 61 242 2.0 4.0 0.00 0.05 0.05 73 1019.9
20260904200536 61 254 1.0 3.0 0.00 0.05 0.05 73 1020.0
20260904200058 61 262 1.0 5.0 0.00 0.05 0.05 72 1019.8
20260904195536 62 260 2.0 5.0 0.00 0.05 0.05 72 1019.8
20260904195034 62 252 1.0 4.0 0.00 0.05 0.05 72 1019.7
20260904194604 62 288 2.0 8.0 0.00 0.05 0.05 71 1019.8
20260904194038 62 267 2.0 8.0 0.00 0.05 0.05 71 1019.7
20260904193537 63 269 2.0 8.0 0.00 0.05 0.05 71 1019.7
20260904193058 63 264 2.0 8.0 0.00 0.05 0.05 70 1019.6
20260904192537 63 275 3.0 7.0 0.00 0.05 0.05 70 1019.7
20260904192039 63 260 2.0 7.0 0.00 0.05 0.05 70 1019.5
20260904191607 63 288 3.0 7.0 0.00 0.05 0.05 69 1019.4
20260904191038 64 291 2.0 5.0 0.00 0.05 0.05 69 1019.4
20260904190535 64 321 2.0 8.0 0.00 0.05 0.05 69 1019.3
20260904190056 64 262 3.0 9.0 0.00 0.05 0.05 68 1019.2
20260904185533 64 325 4.0 11.0 0.00 0.05 0.05 68 1019.1
20260904185034 64 249 4.0 11.0 0.00 0.05 0.05 67 1019.0
20260904184606 64 263 3.0 11.0 0.00 0.05 0.05 67 1019.0
20260904184037 65 268 5.0 8.0 0.00 0.05 0.05 67 1018.9
20260904183537 65 298 3.0 11.0 0.00 0.05 0.05 67 1018.9
20260904183057 65 296 3.0 11.0 0.00 0.05 0.05 67 1018.8
20260904182536 65 297 4.0 8.0 0.00 0.05 0.05 67 1018.8
20260904182033 65 271 4.0 10.0 0.00 0.05 0.05 67 1018.6
20260904181555 65 261 3.0 10.0 0.00 0.05 0.05 67 1018.6
20260904181037 65 265 4.0 10.0 0.00 0.05 0.05 66 1018.5
20260904180537 65 289 4.0 9.0 0.00 0.05 0.05 66 1018.7
20260904180110 65 257 3.0 9.0 0.00 0.05 0.05 66 1018.5
20260904175536 65 274 4.0 9.0 0.00 0.05 0.05 65 1018.5
20260904175037 65 267 4.0 9.0 0.00 0.05 0.05 65 1018.6
20260904174559 66 304 3.0 8.0 0.00 0.05 0.05 64 1018.5
20260904174038 66 256 4.0 10.0 0.00 0.05 0.05 64 1018.5
20260904173536 66 0 4.0 10.0 0.00 0.05 0.05 63 1018.4
20260904173105 66 330 5.0 14.0 0.00 0.05 0.05 63 1018.3
20260904172534 66 272 4.0 14.0 0.00 0.05 0.05 63 1018.4
20260904172036 66 286 5.0 14.0 0.00 0.05 0.05 62 1018.3
20260904171601 66 289 4.0 9.0 0.00 0.05 0.05 63 1018.1
20260904171037 66 282 5.0 9.0 0.00 0.05 0.05 62 1018.2
20260904170538 66 234 3.0 11.0 0.00 0.05 0.05 62 1018.1
20260904170101 66 286 5.0 11.0 0.00 0.05 0.05 61 1018.1
20260904165537 67 272 4.0 12.0 0.00 0.05 0.05 61 1018.3
20260904165039 67 276 6.0 12.0 0.00 0.05 0.05 61 1018.1
20260904164603 67 244 6.0 12.0 0.00 0.05 0.05 61 1018.0
20260904164037 67 242 4.0 10.0 0.00 0.05 0.05 61 1018.2
20260904163538 67 261 5.0 12.0 0.00 0.05 0.05 61 1018.2
20260904163109 67 276 5.0 14.0 0.00 0.05 0.05 61 1018.0
20260904162536 67 220 5.0 14.0 0.00 0.05 0.05 61 1018.1
20260904162033 67 282 7.0 14.0 0.00 0.05 0.05 61 1018.0
20260904161603 68 267 5.0 10.0 0.00 0.05 0.05 61 1018.0
20260904161033 68 309 5.0 11.0 0.00 0.05 0.05 61 1018.1
20260904160537 68 262 4.0 11.0 0.00 0.05 0.05 61 1018.0
20260904160100 68 275 5.0 10.0 0.00 0.05 0.05 61 1018.0
20260904155537 68 250 3.0 16.0 0.00 0.05 0.05 61 1017.8
20260904155036 68 292 7.0 16.0 0.00 0.05 0.05 60 1017.7
20260904154554 68 240 4.0 12.0 0.00 0.05 0.05 60 1017.6
20260904154036 68 270 6.0 12.0 0.00 0.05 0.05 60 1017.7
20260904153536 68 275 4.0 15.0 0.00 0.05 0.05 60 1017.7
20260904153107 68 261 3.0 15.0 0.00 0.05 0.05 60 1017.6
20260904152534 68 231 7.0 14.0 0.00 0.05 0.05 59 1017.6
20260904152033 68 271 6.0 14.0 0.00 0.05 0.05 59 1017.6
20260904151600 68 294 6.0 18.0 0.00 0.05 0.05 60 1017.5
20260904151034 68 304 8.0 18.0 0.00 0.05 0.05 59 1017.6
20260904150538 68 275 9.0 13.0 0.00 0.05 0.05 60 1017.8
20260904150058 69 314 6.0 12.0 0.00 0.05 0.05 60 1017.5
20260904145537 69 311 4.0 12.0 0.00 0.05 0.05 62 1017.5
20260904145033 69 272 3.0 7.0 0.00 0.05 0.05 67 1017.4
20260904144555 68 270 2.0 7.0 0.00 0.05 0.05 67 1017.1
20260904144034 68 250 3.0 11.0 0.00 0.05 0.05 68 1017.2
20260904143534 68 267 3.0 11.0 0.00 0.05 0.05 68 1017.3
20260904143105 68 294 4.0 13.0 0.00 0.05 0.05 68 1017.2
20260904142534 68 323 4.0 13.0 0.00 0.05 0.05 68 1017.1
20260904142033 68 308 6.0 13.0 0.00 0.05 0.05 69 1017.2
20260904141617 68 300 5.0 14.0 0.00 0.05 0.05 68 1017.1
20260904141038 68 300 8.0 14.0 0.00 0.05 0.05 67 1017.3
20260904140536 69 315 7.0 17.0 0.00 0.05 0.05 67 1017.4
20260904140100 69 318 5.0 17.0 0.00 0.05 0.05 65 1017.2
20260904135537 69 298 8.0 17.0 0.00 0.05 0.05 62 1016.9
20260904135037 70 335 6.0 16.0 0.00 0.05 0.05 62 1016.8
20260904134600 70 292 7.0 16.0 0.00 0.05 0.05 62 1016.8
20260904134036 70 299 6.0 15.0 0.00 0.05 0.05 61 1016.8
20260904133534 71 272 6.0 16.0 0.00 0.05 0.05 60 1017.0
20260904133103 71 291 7.0 16.0 0.00 0.05 0.05 59 1017.0
20260904132534 71 244 8.0 16.0 0.00 0.05 0.05 59 1016.8
20260904132033 71 295 6.0 16.0 0.00 0.05 0.05 59 1016.6
20260904131635 72 298 7.0 14.0 0.00 0.05 0.05 59 1016.6
20260904131033 72 269 7.0 14.0 0.00 0.05 0.05 61 1016.6
20260904130536 71 300 5.0 15.0 0.00 0.05 0.05 62 1016.4
20260904130057 71 337 8.0 15.0 0.00 0.05 0.05 61 1016.5
20260904125537 72 296 8.0 16.0 0.00 0.05 0.05 61 1016.5
20260904125036 72 284 7.0 16.0 0.00 0.05 0.05 62 1016.5
20260904124554 72 312 9.0 16.0 0.00 0.05 0.05 62 1016.6
20260904124033 72 235 9.0 16.0 0.00 0.05 0.05 60 1016.5
20260904123534 73 257 7.0 17.0 0.00 0.05 0.05 61 1016.6
20260904123109 73 317 9.0 17.0 0.00 0.05 0.05 61 1016.5
20260904122540 72 263 9.0 21.0 0.00 0.05 0.05 63 1016.3
20260904122037 72 309 9.0 21.0 0.00 0.05 0.05 62 1016.2
20260904121556 73 292 8.0 21.0 0.00 0.05 0.05 62 1016.2
20260904121036 72 231 9.0 22.0 0.00 0.05 0.05 62 1016.1
20260904120538 72 316 9.0 22.0 0.00 0.05 0.05 60 1016.1
20260904120108 72 255 8.0 17.0 0.00 0.05 0.05 62 1016.1
20260904115534 71 262 5.0 15.0 0.00 0.05 0.05 65 1016.0
20260904115034 71 242 7.0 15.0 0.00 0.05 0.05 66 1015.9
20260904114600 71 241 6.0 15.0 0.00 0.05 0.05 66 1015.9
20260904114034 71 242 5.0 15.0 0.00 0.05 0.05 66 1015.9
20260904113535 71 221 6.0 16.0 0.00 0.05 0.05 65 1015.9
20260904113059 71 248 7.0 20.0 0.00 0.05 0.05 67 1015.9
20260904112536 71 261 10.0 20.0 0.00 0.05 0.05 65 1015.8
20260904112034 71 281 6.0 14.0 0.00 0.05 0.05 69 1015.7
20260904111557 71 234 5.0 12.0 0.00 0.05 0.05 70 1015.5
20260904111035 70 270 6.0 12.0 0.00 0.05 0.05 71 1015.5
20260904110534 70 301 5.0 12.0 0.00 0.05 0.05 72 1015.5
20260904110106 69 245 5.0 13.0 0.00 0.05 0.05 73 1015.5
20260904105535 69 294 5.0 13.0 0.00 0.05 0.05 73 1015.3
20260904105033 69 321 4.0 11.0 0.00 0.05 0.05 74 1015.3
20260904104610 69 308 4.0 13.0 0.00 0.05 0.05 76 1015.5
20260904104033 69 250 5.0 13.0 0.00 0.05 0.05 77 1015.3
20260904103536 68 273 5.0 16.0 0.00 0.05 0.05 77 1015.2
20260904103106 68 294 7.0 16.0 0.00 0.05 0.05 77 1015.3
20260904102535 68 268 6.0 15.0 0.00 0.05 0.05 77 1015.3
20260904102034 68 276 7.0 18.0 0.00 0.05 0.05 78 1015.4
20260904101604 68 276 8.0 18.0 0.00 0.05 0.05 78 1015.4
20260904101035 68 282 6.0 14.0 0.00 0.05 0.05 80 1015.4
20260904100534 68 279 5.0 14.0 0.00 0.05 0.05 80 1015.2
20260904100053 68 244 5.0 11.0 0.00 0.05 0.05 81 1015.2
20260904095535 68 231 4.0 10.0 0.00 0.05 0.05 82 1015.2
20260904095037 68 236 3.0 10.0 0.00 0.05 0.05 83 1015.0
20260904094559 67 207 2.0 13.0 0.00 0.05 0.05 83 1014.9
20260904094034 67 267 7.0 13.0 0.00 0.05 0.05 83 1014.9
20260904093536 67 280 5.0 11.0 0.00 0.05 0.05 84 1015.0
20260904093100 67 213 3.0 7.0 0.00 0.05 0.05 85 1014.8
20260904092534 67 255 2.0 8.0 0.00 0.05 0.05 85 1014.8
20260904092034 67 269 2.0 8.0 0.00 0.05 0.05 85 1014.6
20260904091557 67 238 2.0 8.0 0.00 0.05 0.05 86 1014.6
20260904091035 67 236 1.0 8.0 0.00 0.05 0.05 86 1014.5
20260904090534 66 0 3.0 8.0 0.00 0.05 0.05 86 1014.5
20260904090052 66 254 3.0 9.0 0.00 0.05 0.05 86 1014.5
20260904085536 66 286 3.0 9.0 0.00 0.05 0.05 86 1014.4
20260904085034 66 252 3.0 14.0 0.00 0.05 0.05 86 1014.4
20260904084601 66 281 5.0 14.0 0.00 0.05 0.05 86 1014.6
20260904084035 66 296 3.0 10.0 0.00 0.05 0.05 87 1014.5
20260904083537 66 268 4.0 10.0 0.01 0.05 0.05 87 1014.5
20260904083102 66 232 4.0 12.0 0.03 0.05 0.05 88 1014.4
20260904082537 66 274 3.0 12.0 0.03 0.05 0.05 88 1014.4
20260904082035 66 0 2.0 8.0 0.03 0.05 0.05 88 1014.3
20260904081555 66 0 3.0 7.0 0.03 0.05 0.05 88 1014.2
20260904081034 66 279 2.0 9.0 0.03 0.05 0.05 88 1014.1
20260904080534 66 269 2.0 9.0 0.03 0.05 0.05 88 1014.2
20260904080105 66 257 3.0 8.0 0.03 0.05 0.05 87 1013.9
20260904075534 66 278 1.0 13.0 0.03 0.05 0.05 87 1013.8
20260904075034 66 259 3.0 13.0 0.03 0.05 0.05 87 1013.8
20260904074634 66 270 5.0 15.0 0.03 0.05 0.05 86 1013.6
20260904074033 67 254 6.0 19.0 0.03 0.05 0.05 86 1013.7
20260904073534 68 244 9.0 19.0 0.01 0.03 0.03 85 1013.7
20260904073058 68 300 9.0 21.0 0.00 0.01 0.01 86 1013.3
20260904072536 68 194 9.0 21.0 0.00 0.01 0.01 86 1013.2
20260904072036 68 288 10.0 20.0 0.00 0.01 0.01 86 1013.2
20260904071600 68 273 12.0 22.0 0.00 0.01 0.01 86 1013.0
20260904071036 68 247 7.0 22.0 0.00 0.01 0.01 86 1013.0
20260904070534 68 233 11.0 22.0 0.00 0.01 0.01 86 1013.1
20260904070104 68 244 9.0 21.0 0.00 0.01 0.01 86 1013.1
20260904065537 68 279 9.0 21.0 0.00 0.02 0.01 86 1012.9
20260904065037 68 244 11.0 21.0 0.00 0.02 0.01 86 1013.0
20260904064600 68 264 9.0 23.0 0.00 0.02 0.01 86 1012.9
20260904064036 68 211 9.0 23.0 0.00 0.02 0.01 86 1013.0
20260904063536 68 224 11.0 21.0 0.00 0.02 0.01 86 1013.0
20260904063110 68 236 9.0 22.0 0.00 0.02 0.01 87 1012.9
20260904062534 68 198 9.0 23.0 0.00 0.02 0.01 87 1013.0
20260904062034 68 269 12.0 23.0 0.00 0.02 0.01 87 1013.0
20260904061601 68 268 9.0 21.0 0.00 0.02 0.01 87 1013.1
20260904061034 68 221 11.0 21.0 0.00 0.02 0.01 87 1013.0
20260904060537 68 224 11.0 21.0 0.00 0.02 0.01 87 1013.0
20260904060114 68 255 9.0 21.0 0.00 0.02 0.01 87 1013.2
20260904055537 68 224 8.0 22.0 0.00 0.03 0.01 87 1013.1
20260904055033 68 184 8.0 22.0 0.00 0.03 0.01 87 1013.0
20260904054606 68 238 11.0 21.0 0.00 0.03 0.01 87 1013.2
20260904054036 68 228 10.0 21.0 0.00 0.03 0.01 87 1013.2
20260904053535 68 210 10.0 21.0 0.00 0.03 0.01 87 1013.3
20260904053059 68 203 11.0 21.0 0.00 0.03 0.01 87 1013.4
20260904052537 68 277 12.0 21.0 0.00 0.03 0.01 87 1013.4
20260904052119 68 259 10.0 23.0 0.00 0.03 0.01 87 1013.3